Theta_e
310 310 310 310 310 310 310 310 311 311 310 310 310 310 310 311 312 314 315 315 317 316 316 315 316 316 316 318 319 319 311 313 315 318 318 317 316 317 317 317 317 317 318 318 318
310 310 310 311 311 312 312 312 312 312 312 312 312 311 310 310 311 312 313 315 315 316 316 315 317 317 317 318 320 317 311 312 313 317 316 317 316 317 316 315 316 317 318 318 317
310 311 311 312 312 312 312 313 313 313 313 313 313 313 312 311 311 313 316 316 314 315 315 315 317 317 317 318 319 317 314 314 318 318 318 316 315 317 315 313 316 317 318 318 317
312 312 312 312 312 312 312 312 312 312 313 313 313 313 313 311 310 316 315 313 315 316 314 315 316 317 316 315 318 316 317 316 318 319 317 316 316 315 315 317 318 318 318 317 317
313 313 313 313 313 312 312 313 313 313 313 313 313 313 312 311 313 314 313 313 315 316 316 314 315 317 315 316 317 316 316 318 319 318 318 316 315 314 315 317 317 317 317 317 317
309 309 310 311 312 313 313 313 313 314 314 314 314 313 311 310 314 314 314 314 315 314 315 313 314 316 316 317 315 316 316 317 317 317 317 315 314 316 317 317 317 317 316 317 317
311 311 311 311 310 309 309 309 310 311 313 314 314 313 311 314 315 314 314 314 313 313 313 313 314 316 315 316 316 317 314 313 315 316 313 314 312 312 317 316 316 317 317 317 317
314 314 314 314 314 315 315 314 312 309 308 308 310 311 311 314 314 314 313 313 313 312 312 312 312 314 314 315 315 314 313 313 312 312 314 314 314 313 317 316 317 317 317 316 317
311 311 311 312 312 313 314 315 315 314 311 308 307 310 311 313 314 314 313 314 313 312 312 311 313 314 314 311 310 310 310 310 312 313 312 311 313 313 317 316 316 318 318 317 317
315 314 312 311 311 310 310 312 313 312 311 308 311 312 311 313 314 314 314 314 312 312 311 311 312 310 310 309 311 309 310 311 312 312 312 311 312 313 315 314 314 316 317 317 317
319 319 320 320 320 314 309 310 310 312 312 313 312 311 314 314 315 314 314 312 312 311 309 311 309 309 310 310 311 310 309 310 311 311 313 312 313 313 314 314 312 314 315 316 317
323 323 323 323 322 316 316 309 308 308 307 310 312 312 313 314 315 314 313 312 312 310 310 311 310 310 309 309 310 311 312 312 312 311 310 311 312 313 312 313 314 313 314 314 315
322 322 323 323 322 321 316 311 308 308 308 308 309 308 309 310 311 313 312 312 310 309 309 311 311 311 310 310 311 310 311 312 312 311 309 308 311 310 309 312 313 314 314 314 314
323 323 323 323 322 322 318 312 308 308 303 306 310 309 310 310 310 312 312 312 309 310 308 308 310 311 311 311 311 312 310 311 311 311 312 310 313 311 309 310 310 312 314 314 315
324 325 325 324 324 322 320 311 308 310 317 310 310 310 311 309 308 310 311 311 309 310 310 309 311 310 310 312 310 313 310 310 310 309 309 311 311 312 310 311 310 311 313 316 317
323 324 324 323 323 323 322 310 311 309 317 309 309 309 310 310 310 309 310 310 309 309 308 309 310 309 309 309 308 309 311 310 307 308 313 311 311 312 310 311 311 311 314 315 316
321 321 322 323 322 323 322 311 321 319 312 312 309 309 309 309 309 307 307 308 308 309 307 307 307 308 310 311 309 310 310 310 310 310 313 309 310 313 310 310 309 310 313 316 317
318 318 320 322 322 322 321 316 324 318 313 313 310 309 310 309 310 308 307 307 306 307 306 308 311 307 307 310 309 309 310 311 309 312 313 306 310 311 309 310 313 314 314 315 316
314 315 317 317 319 321 317 320 322 321 316 316 317 316 310 309 309 309 306 306 307 306 309 308 309 308 307 308 309 308 309 310 309 295 305 310 310 311 307 308 307 309 312 311 312
309 311 314 315 316 318 314 320 319 317 318 318 321 317 314 311 310 311 310 308 308 306 308 309 310 309 307 307 307 308 307 310 309 310 308 311 310 312 311 311 308 307 307 311 311
306 309 311 313 316 314 316 316 316 317 317 317 318 319 316 316 313 315 314 310 308 310 307 309 311 311 308 307 310 306 308 308 308 312 315 315 314 313 311 308 306 307 310 311 312
307 309 310 315 313 312 315 314 315 314 315 316 314 316 317 317 318 319 319 317 312 310 310 310 312 314 313 310 306 306 309 310 312 313 312 313 314 313 313 311 311 311 309 312 312
306 309 310 314 313 314 312 312 314 314 314 314 315 313 314 315 316 315 315 315 315 314 313 311 314 317 315 312 311 312 311 309 310 310 312 314 314 313 312 311 311 306 309 311 311
303 305 309 311 311 312 312 312 313 312 312 313 313 313 313 314 314 314 314 313 314 313 314 314 315 316 317 316 312 311 310 310 310 311 312 311 311 310 311 311 311 311 311 311 311
299 301 304 307 309 309 310 310 310 310 310 311 312 312 311 313 311 312 309 304 305 310 310 312 315 314 314 314 314 314 314 313 313 310 311 311 311 310 310 311 312 311 311 310 310
296 299 299 300 300 304 307 308 309 309 309 310 310 302 304 304 305 305 306 303 303 304 304 303 309 311 312 312 311 312 312 312 312 312 313 313 313 312 311 312 312 312 312 312 312
294 296 296 297 298 297 298 302 302 299 301 304 299 297 299 299 297 296 297 297 299 300 301 302 305 306 307 309 310 312 313 312 312 311 312 314 313 312 311 312 311 310 308 303 302
Wind_Speed
6 6 6 7 7 7 8 8 8 9 8 8 9 9 10 10 11 14 16 9 5 7 7 4 4 5 6 4 5 2 3 3 5 3 4 2 3 4 5 5 12 14 14 10 7
7 7 7 7 7 7 8 8 8 9 9 9 10 10 11 13 15 19 14 13 10 9 8 6 6 6 4 4 5 4 3 8 6 2 4 4 7 6 5 7 9 17 23 22 16
10 9 9 10 9 9 9 10 10 10 11 11 11 12 13 13 18 5 2 5 16 11 10 8 7 7 4 7 7 6 6 6 9 7 6 4 5 8 7 7 20 24 28 27 24
12 12 12 12 12 12 11 11 12 11 11 12 12 12 13 12 5 2 6 9 6 17 14 12 10 7 5 6 12 4 16 16 14 16 7 5 5 7 19 33 20 18 18 24 30
15 15 14 14 14 15 14 13 13 13 13 13 13 13 14 10 20 21 19 14 10 14 20 18 16 11 5 6 4 7 8 15 23 19 21 16 17 12 23 31 26 26 26 26 27
15 16 16 17 17 17 18 18 17 17 16 15 15 15 14 11 14 12 11 12 14 15 19 21 12 16 8 7 7 4 7 15 16 18 15 7 11 7 40 32 29 31 37 36 37
14 15 14 15 16 17 18 19 20 21 20 18 17 16 19 28 22 21 21 18 17 17 20 22 20 9 2 5 8 7 8 8 15 19 10 8 10 12 45 32 32 27 29 33 40
15 15 15 16 17 17 18 18 19 19 20 19 18 16 15 19 22 23 23 22 18 17 19 19 17 13 11 8 5 4 2 5 0 7 4 13 16 14 25 23 29 30 32 32 35
12 13 14 14 15 17 17 18 19 19 18 18 14 12 10 16 18 19 20 19 14 17 16 13 10 7 5 2 4 2 6 8 14 15 6 8 12 12 17 20 26 29 32 34 37
9 10 8 10 13 15 15 16 16 17 17 10 11 5 18 13 13 14 12 16 11 10 9 7 7 2 1 4 8 8 6 6 8 3 4 8 16 15 27 14 22 27 32 37 41
10 10 8 10 12 13 13 8 5 4 7 10 6 9 6 12 13 14 14 15 10 8 6 7 4 10 21 17 15 2 6 7 8 6 5 10 17 19 30 23 25 35 43 46 47
11 11 10 10 10 10 12 6 5 6 11 18 26 29 30 22 9 18 16 13 10 8 6 2 11 17 7 6 9 12 17 21 19 19 7 16 23 17 13 24 31 30 39 47 49
14 13 12 11 10 10 9 9 9 8 5 12 24 18 30 26 20 17 19 11 5 7 10 15 10 13 12 9 11 13 14 19 17 6 6 11 22 15 12 31 39 42 45 49 49
18 15 15 11 8 9 6 11 9 7 2 7 4 3 4 7 3 11 20 12 4 10 7 9 13 14 7 8 15 16 13 15 14 3 11 3 26 6 7 14 13 27 39 41 45
24 19 17 15 11 8 7 7 6 4 6 4 3 2 7 6 2 2 14 8 4 4 5 9 3 5 10 20 10 13 5 6 3 5 5 7 8 4 11 11 13 17 31 41 41
19 19 19 19 18 11 9 4 2 3 8 5 2 2 3 1 0 3 4 4 2 4 6 12 4 6 9 5 8 1 3 4 4 2 12 12 11 1 6 10 6 10 32 37 37
20 19 14 18 17 10 9 4 2 6 1 5 5 4 4 5 4 6 5 7 6 3 5 3 7 5 7 3 3 4 5 4 4 1 12 9 9 23 6 6 11 13 27 32 35
15 15 17 16 13 17 11 1 11 8 6 2 2 2 6 6 6 6 5 4 6 1 3 2 14 9 5 11 9 11 11 7 8 12 19 4 10 11 13 13 23 30 33 39 45
19 19 21 19 14 14 8 6 4 4 4 4 5 4 6 5 6 5 6 5 8 15 9 5 14 2 5 3 9 4 7 16 2 1 1 7 14 13 7 8 8 16 31 36 41
20 20 27 21 14 17 4 18 9 6 3 3 6 7 5 5 5 4 6 3 4 11 13 5 12 7 2 2 3 7 4 2 2 3 7 9 6 14 16 14 10 10 16 27 29
19 10 15 12 20 15 11 8 6 12 7 6 5 10 9 7 5 9 7 4 5 2 10 2 2 18 1 7 12 1 4 4 3 5 14 18 15 28 16 9 7 11 20 18 25
7 4 10 21 11 6 13 6 8 9 11 8 4 14 18 17 19 21 21 16 6 7 6 5 6 10 25 14 3 4 12 12 12 13 11 17 19 27 32 25 19 26 30 31 29
7 10 10 26 8 11 6 7 11 15 14 5 8 9 13 21 18 24 23 27 29 9 6 6 3 6 3 10 13 13 22 16 17 18 25 22 21 28 24 24 23 17 30 38 38
3 3 10 21 22 7 12 16 15 15 16 20 16 14 17 22 22 24 28 13 22 19 27 16 18 17 21 21 11 8 11 22 22 17 24 23 25 23 32 28 31 26 33 35 35
5 4 4 3 12 12 12 5 13 18 11 5 6 14 14 10 9 8 7 9 13 20 9 9 22 22 24 30 29 30 30 27 26 27 25 26 30 25 28 32 31 26 32 23 31
3 3 4 6 8 3 5 14 19 12 7 10 9 5 5 3 5 7 6 5 5 6 7 7 7 12 20 22 25 28 29 32 34 36 36 36 34 28 31 39 35 38 38 31 29
6 11 5 5 2 1 3 3 2 5 4 7 5 7 9 5 11 19 23 26 19 18 21 11 9 11 23 19 18 21 26 33 33 33 28 30 34 26 27 26 26 30 21 24 25
Wind_Direction
322 325 329 334 338 340 343 344 345 346 346 346 343 337 327 311 298 278 271 264 257 240 245 228 196 201 205 215 204 208 61 251 251 219 265 201 238 225 234 227 204 211 240 246 238
312 313 316 319 321 323 323 324 326 327 329 331 328 327 323 317 306 287 280 255 238 239 235 229 194 186 200 222 201 165 152 226 220 238 240 243 223 252 218 227 231 234 237 243 239
304 305 307 309 309 309 310 312 313 314 316 317 319 318 318 318 314 307 45 246 234 234 240 225 209 206 226 213 201 190 215 223 266 268 267 242 245 237 220 248 236 238 247 242 238
297 301 303 304 302 299 300 301 303 304 304 305 308 308 306 304 291 285 296 307 270 232 233 221 206 196 219 213 218 214 241 236 266 282 277 236 251 242 225 253 264 267 271 256 244
294 294 293 291 292 294 294 294 293 294 296 299 300 300 298 272 263 284 285 283 260 237 230 223 208 204 202 213 234 226 249 247 252 257 272 273 252 249 259 264 259 259 255 249 248
291 294 295 294 291 289 290 289 287 287 289 291 294 295 287 254 283 280 277 267 256 244 233 223 224 223 267 236 200 279 265 269 271 256 262 224 271 239 272 276 264 256 252 251 252
288 291 294 295 294 294 290 288 286 284 283 283 284 284 272 264 277 276 271 264 252 248 238 233 228 209 255 285 276 291 306 306 256 256 233 213 284 226 263 267 273 262 254 252 252
287 289 292 293 293 290 289 288 286 286 283 276 274 273 258 273 270 258 254 253 249 240 238 239 229 244 260 286 332 311 333 312 301 148 227 162 263 252 267 257 260 264 263 254 252
299 299 302 302 299 294 291 286 285 283 279 273 266 239 259 259 259 262 250 253 255 238 236 242 221 222 254 99 351 282 244 225 293 200 162 183 246 270 256 240 252 262 269 268 259
322 327 331 324 319 308 304 296 288 280 269 261 228 221 238 247 253 259 245 234 227 217 218 199 181 166 341 128 230 222 224 253 244 242 186 222 248 272 269 238 247 262 265 266 266
316 322 341 339 339 331 323 323 292 273 236 218 225 219 225 252 243 245 231 204 194 180 174 185 135 207 222 212 234 206 228 243 256 247 225 230 236 248 265 269 259 264 265 262 260
301 307 319 329 338 343 344 6 335 293 296 254 253 244 248 251 244 228 211 180 175 198 154 160 214 225 235 210 222 243 257 262 270 265 214 260 259 249 250 262 261 255 263 263 264
285 292 301 318 326 340 344 349 339 336 261 274 250 252 251 247 238 247 211 203 175 183 201 221 225 216 218 230 241 229 233 253 256 301 249 289 271 251 244 250 262 263 257 263 263
278 283 291 304 304 327 324 333 337 344 355 272 257 244 221 182 254 227 206 218 197 230 208 238 241 217 189 217 216 257 227 254 261 283 274 126 294 196 231 244 243 253 261 257 264
272 271 278 282 279 301 308 330 344 16 299 250 214 243 164 168 142 34 201 234 211 196 165 242 209 190 222 234 181 253 167 233 218 215 337 182 266 161 203 250 247 253 254 267 273
287 272 257 266 269 279 282 295 273 55 250 292 190 142 105 147 184 119 146 176 299 255 226 241 196 189 211 194 206 95 59 37 65 122 265 203 210 97 179 213 241 252 258 265 269
276 275 264 272 257 266 255 251 285 218 323 247 216 172 175 194 211 179 165 165 199 263 240 312 227 213 181 225 141 132 92 298 320 9 255 191 216 251 274 216 215 238 258 263 270
274 270 265 262 269 257 230 235 225 186 229 334 112 115 190 158 239 183 153 225 242 229 320 261 290 176 179 201 193 207 189 182 206 253 270 109 249 265 220 238 241 249 264 270 268
273 265 259 260 251 248 208 227 249 218 202 228 324 251 220 238 210 142 215 226 212 184 194 209 268 166 198 163 153 175 177 233 317 108 5 248 275 287 229 269 310 282 285 275 275
273 275 262 258 235 219 195 248 246 229 260 260 231 205 208 189 186 176 189 193 226 187 227 279 268 230 152 123 275 186 165 115 184 206 248 268 250 260 284 285 290 295 304 320 322
261 253 255 245 214 186 228 232 223 230 229 220 239 250 249 253 239 250 233 222 219 196 181 76 325 270 167 211 235 184 247 229 184 197 246 261 264 278 278 274 261 298 299 323 327
226 237 220 200 183 211 233 216 234 244 237 253 250 261 264 271 261 257 255 244 230 225 201 170 176 238 263 261 301 271 265 242 237 246 235 254 257 263 269 270 272 288 291 295 309
223 241 224 204 223 225 215 234 234 247 237 225 245 232 252 255 268 256 256 256 252 233 237 182 220 267 261 289 251 233 247 241 255 258 251 254 253 257 269 271 264 245 262 282 292
249 258 206 220 237 257 244 248 245 255 250 243 254 260 272 270 261 270 271 272 250 237 246 245 249 239 254 264 279 267 224 238 242 255 254 247 260 262 271 265 271 266 269 274 276
225 239 268 215 235 248 248 274 268 266 249 246 243 245 268 272 295 298 326 9 348 318 273 244 241 235 244 251 254 257 265 259 252 247 250 254 251 248 256 270 276 281 285 276 282
245 276 311 288 303 274 247 238 257 269 259 252 248 22 324 269 323 310 336 17 286 312 327 313 287 297 283 272 257 250 248 252 261 260 260 261 260 261 260 265 276 279 282 287 280
240 269 287 270 333 96 229 266 304 38 269 250 10 337 292 302 324 301 292 275 254 268 277 268 273 283 279 288 297 278 259 259 258 261 257 259 257 267 268 263 270 295 0 27 8